Location: Alpino
(32.5215°N, 116.5815°W)
Time: 10:32:32
(UTC+00:00)

Cosmos 1766 - Pass Details

Date: 13 April 2024
Orbit: 487 x 504 km, 82.5° (Epoch: 23 May)

Event Time Altitude Azimuth Distance (km) Brightness Sun altitude
Rises 11:13:52 0° 21° (NNE) 2,564 7.5 -25.3°
Reaches altitude 10° 11:17:43 10° 63° (ENE) 1,674 6.9 -24.6°
Drops below altitude 10° 11:19:14 10° 87° (E) 1,671 6.6 -24.3°
Maximum altitude 12:53:55 31° 268° (W) 873 3.8 -5.9°
Sets 12:59:24 0° 195° (SSW) 2,541 6.4 -4.8°
